Wind_Speed
66 66 67 68 66 66 64 61 56 55 53 53 51 51 51 49 47 44 43 41 40 42 46 48 50 51 52 58 62 68 67 64 60 56 58 36 46 59 60 69 70 71 72
67 68 68 67 66 64 60 55 50 50 48 48 47 46 47 46 43 41 38 38 38 36 36 40 42 45 48 51 55 59 62 62 54 51 55 60 46 45 60 62 71 72 71
69 69 67 67 63 57 54 50 48 45 46 45 42 41 41 43 39 37 37 37 35 37 34 35 38 41 41 49 52 52 53 57 54 52 62 59 67 68 66 63 65 70 73
64 63 60 55 54 49 47 46 46 45 44 43 39 38 39 38 37 36 34 32 32 34 35 37 36 39 42 42 44 47 48 52 47 51 61 69 75 78 71 63 69 66 68
53 50 47 48 47 46 46 45 46 45 44 41 39 37 35 36 36 35 35 32 31 32 35 36 37 37 40 41 42 41 44 51 49 51 58 63 62 63 65 66 65 65 62
42 41 44 47 47 45 46 45 45 45 41 39 38 37 35 36 37 36 34 31 30 31 34 35 38 38 40 38 39 41 40 44 49 51 59 62 60 65 62 66 66 68 64
36 37 44 47 47 46 44 44 42 42 39 38 38 38 37 37 34 34 33 31 33 33 35 35 36 38 40 40 38 37 40 45 44 46 50 55 59 56 62 61 67 64 65
37 37 42 48 48 45 43 42 43 43 42 41 42 41 38 37 34 33 32 35 36 34 35 33 35 40 40 38 37 36 39 48 50 48 50 54 61 61 54 56 55 53 58
39 41 43 46 46 45 44 45 47 47 45 45 44 42 41 38 40 35 34 36 40 39 36 34 38 43 43 39 34 31 35 45 57 55 54 53 49 54 56 56 52 51 46
41 43 45 47 47 47 47 49 49 48 48 47 45 42 45 44 42 39 37 38 42 39 38 39 42 45 46 39 36 28 33 46 51 59 56 56 52 51 49 47 42 44 44
44 46 48 50 52 51 50 51 53 52 53 53 51 49 48 49 47 42 40 40 43 41 42 45 45 45 42 39 36 30 32 42 52 48 50 55 53 53 47 47 41 40 36
40 47 49 50 50 53 52 53 56 56 55 56 56 54 53 53 48 43 43 41 42 41 42 48 44 43 44 40 32 27 29 38 52 49 47 48 51 49 50 47 43 42 37
40 43 47 48 53 54 55 57 58 59 58 56 53 51 52 52 46 43 46 44 42 43 41 48 41 41 41 40 32 27 28 34 44 54 49 48 50 53 49 48 45 40 44
52 52 49 50 48 51 51 51 51 50 50 49 50 49 49 51 49 45 48 46 42 43 45 46 40 39 40 42 33 25 22 28 32 36 46 50 45 47 49 49 48 50 46
56 59 54 55 57 56 55 55 54 53 50 45 43 47 51 50 47 48 49 47 44 44 45 48 38 35 37 39 30 25 19 23 25 29 27 30 33 39 41 46 45 45 42
56 59 60 60 61 64 61 61 60 57 55 52 47 49 50 50 46 49 51 47 44 43 44 46 36 31 34 34 26 23 21 21 25 29 31 29 31 34 35 33 33 34 36
57 59 59 60 62 62 68 68 67 64 60 57 53 49 50 50 47 48 49 48 45 45 42 41 36 30 34 30 28 22 22 19 24 29 28 28 31 32 30 30 32 33 34
66 65 65 67 66 67 68 74 73 71 67 61 58 52 52 48 48 47 49 47 46 40 38 39 35 30 28 32 33 21 21 18 23 25 21 28 33 32 29 30 30 30 33
74 73 73 73 74 78 78 79 79 77 73 69 62 59 54 49 49 47 46 48 44 36 36 36 33 31 27 29 35 28 21 21 25 25 22 24 28 27 24 27 31 27 23
82 81 77 76 78 80 83 82 85 84 79 76 69 64 60 54 51 46 42 43 41 39 36 32 31 32 24 30 35 33 24 25 25 29 23 28 29 30 26 25 24 23 23
83 78 73 69 69 71 72 73 79 84 83 80 73 67 64 59 56 52 49 49 45 44 36 31 30 32 24 33 38 36 32 29 30 29 24 30 30 31 26 22 24 26 24
84 78 70 68 71 69 73 73 71 76 81 78 76 72 71 65 62 57 52 49 45 41 34 32 27 25 31 32 36 37 33 31 31 30 29 30 29 30 32 25 22 26 24
87 87 85 79 78 77 73 74 69 70 71 79 77 80 73 69 63 58 50 54 51 46 38 35 29 31 36 32 36 34 33 32 32 32 32 31 29 30 32 27 23 26 27
91 90 90 86 82 80 76 71 68 68 73 80 84 83 75 68 71 64 57 55 56 51 45 39 34 33 35 37 39 36 33 34 33 33 37 39 36 31 25 29 24 23 28
88 92 90 85 83 80 74 70 65 62 78 82 88 85 83 62 70 70 61 61 56 51 50 46 39 40 39 39 38 36 36 34 37 36 34 37 37 36 25 24 23 22 26
87 89 87 84 81 75 66 68 67 77 75 74 78 84 85 91 66 69 67 62 59 56 52 49 42 41 42 37 35 39 36 33 37 40 37 35 38 32 30 28 22 23 28
Wind_Direction
286 287 289 291 292 293 295 295 294 293 292 292 292 292 292 293 295 293 289 282 274 273 272 270 266 263 260 257 252 250 248 248 245 245 239 232 244 241 246 250 251 252 252
287 288 289 290 292 292 292 290 290 289 290 292 292 292 292 294 295 295 296 292 289 282 279 274 269 265 258 258 254 250 249 246 244 239 237 229 233 237 242 243 249 248 249
287 287 288 288 287 286 285 285 287 287 288 289 289 291 295 298 298 300 299 298 297 294 285 279 271 268 264 259 254 250 249 246 238 236 237 231 232 238 240 242 247 249 250
284 285 284 282 282 280 283 283 285 288 287 288 288 292 297 301 304 304 302 303 299 295 292 285 277 274 269 263 261 252 247 245 233 231 236 236 245 248 246 243 247 247 251
279 276 276 275 277 279 281 282 288 289 291 291 294 300 303 306 308 308 307 306 308 305 300 294 288 276 272 266 265 259 247 247 235 229 231 233 246 246 245 244 246 246 249
269 270 269 271 274 274 282 287 290 293 294 294 298 302 304 306 308 311 312 312 313 307 305 301 294 287 282 273 264 256 244 239 245 233 229 234 241 242 243 245 247 252 255
262 264 266 267 269 275 280 285 287 291 292 297 301 302 303 306 309 311 313 314 315 315 307 306 302 297 287 280 270 261 242 233 237 236 229 227 236 242 245 249 254 258 259
265 258 260 265 269 272 277 280 283 285 290 296 298 301 301 302 306 313 311 314 319 320 310 309 309 306 299 291 284 271 250 225 231 221 225 226 235 242 246 252 259 265 262
260 259 256 260 265 269 274 278 281 284 291 295 297 298 299 299 298 308 309 308 315 316 317 319 313 310 304 303 290 275 260 231 231 226 231 235 243 247 251 255 260 262 265
258 253 256 258 261 267 273 276 279 285 290 292 294 294 299 297 294 299 304 305 313 309 319 324 317 316 311 303 296 279 259 233 233 237 236 239 248 253 256 257 254 262 257
265 261 255 257 261 263 267 275 281 286 288 291 293 292 293 298 291 293 295 304 311 304 316 324 320 314 309 311 304 285 255 235 231 239 242 243 246 249 252 258 252 256 256
269 270 271 270 269 268 268 270 276 279 283 286 289 290 292 294 294 289 291 298 305 306 318 319 319 315 315 314 306 284 258 239 227 233 241 245 245 248 251 254 251 253 260
269 271 274 274 276 275 277 278 278 281 282 283 288 291 289 290 293 289 288 292 298 303 308 318 316 319 316 318 310 292 264 244 238 231 236 243 249 254 258 259 254 259 263
271 275 275 273 274 275 278 281 283 282 284 283 281 285 286 287 293 288 287 287 293 298 299 314 313 316 315 319 312 293 267 253 245 238 239 241 248 253 258 265 261 260 268
268 271 274 276 274 277 275 276 281 280 281 281 284 283 282 285 288 286 288 289 289 297 295 310 309 316 316 320 313 292 263 253 246 237 242 247 252 256 260 261 266 271 275
263 263 268 270 273 274 273 271 273 276 276 276 278 284 282 281 284 281 283 284 288 294 295 303 306 317 326 323 311 291 259 242 234 237 240 243 250 251 252 258 265 268 272
268 269 269 267 266 267 267 271 269 270 271 273 275 280 282 278 277 279 281 282 282 293 296 298 303 307 321 327 316 293 256 260 254 240 251 246 244 246 255 262 262 264 263
264 265 268 272 273 271 267 266 268 265 267 268 271 274 275 278 276 276 279 275 278 285 294 297 298 308 315 332 322 307 260 259 253 252 248 240 241 247 253 255 256 263 267
272 268 266 268 271 270 270 269 265 266 265 265 267 265 271 273 274 274 276 272 272 280 293 294 297 303 302 322 330 310 275 259 250 253 256 256 251 252 254 257 261 263 267
277 274 272 270 266 264 266 265 264 263 264 264 264 267 272 267 269 269 269 267 267 281 288 286 293 304 300 304 320 307 285 264 252 250 250 251 253 250 252 260 259 269 265
280 278 277 272 264 262 262 260 258 258 260 263 264 265 271 264 262 263 264 267 267 277 283 277 288 300 292 292 306 310 283 264 255 251 260 247 251 247 244 251 259 265 265
283 281 275 272 269 267 264 261 258 256 256 258 261 262 260 257 259 257 259 264 268 274 279 270 283 287 281 281 299 307 290 264 253 250 253 247 249 251 240 247 257 257 258
278 279 278 274 272 269 263 260 257 252 252 251 253 255 259 258 257 257 255 262 265 272 272 271 276 274 282 274 294 303 300 272 249 246 250 253 255 256 249 247 249 257 248
276 275 275 274 273 269 265 260 256 250 246 245 246 249 250 257 254 255 254 256 261 266 267 265 261 268 269 271 288 293 297 281 249 241 243 251 255 266 253 247 250 253 242
273 271 271 271 270 268 262 261 251 255 244 242 243 244 244 249 248 247 252 252 255 260 265 262 261 261 269 281 285 288 294 280 254 245 244 246 253 260 244 239 254 250 233
270 269 269 270 268 263 256 250 254 241 244 243 242 245 244 243 245 244 247 249 251 256 261 264 263 262 266 279 280 281 293 279 257 242 244 244 249 251 241 233 242 255 233
Height
10829 10828 10826 10825 10826 10824 10823 10822 10821 10818 10816 10814 10812 10808 10804 10802 10800 10799 10798 10797 10796 10793 10790 10790 10789 10789 10788 10788 10791 10793 10799 10804 10810 10813 10816 10816 10808 10811 10811 10811 10814 10814 10816
10819 10818 10817 10816 10816 10814 10813 10812 10812 10810 10808 10807 10805 10802 10798 10797 10796 10792 10790 10788 10787 10786 10784 10780 10778 10777 10777 10776 10779 10782 10787 10793 10798 10798 10800 10803 10799 10797 10797 10802 10798 10802 10806
10810 10809 10807 10806 10807 10805 10804 10804 10803 10803 10802 10800 10799 10797 10794 10790 10789 10786 10783 10781 10779 10778 10775 10773 10769 10766 10766 10765 10767 10770 10776 10780 10787 10783 10784 10786 10783 10782 10786 10789 10790 10790 10793
10800 10799 10798 10798 10796 10796 10796 10796 10795 10795 10795 10794 10794 10792 10789 10785 10782 10780 10778 10775 10773 10770 10767 10764 10762 10758 10757 10756 10757 10760 10764 10766 10776 10772 10774 10773 10773 10776 10781 10780 10780 10781 10783
10789 10789 10788 10787 10787 10787 10787 10788 10788 10787 10787 10787 10786 10785 10782 10779 10776 10773 10771 10769 10767 10763 10760 10757 10753 10751 10748 10748 10748 10751 10754 10755 10764 10764 10763 10763 10764 10769 10769 10770 10771 10773 10776
10780 10781 10780 10780 10780 10780 10781 10781 10780 10779 10779 10778 10778 10778 10776 10774 10770 10767 10764 10763 10761 10758 10755 10750 10746 10743 10739 10740 10740 10741 10743 10744 10748 10756 10757 10758 10759 10756 10760 10762 10765 10767 10771
10772 10775 10773 10773 10773 10774 10774 10773 10772 10772 10772 10772 10772 10771 10770 10768 10764 10762 10759 10757 10756 10753 10749 10745 10740 10736 10732 10730 10730 10733 10734 10738 10740 10743 10750 10751 10751 10750 10753 10754 10758 10764 10765
10763 10766 10768 10766 10766 10767 10766 10766 10766 10764 10765 10766 10765 10764 10763 10761 10758 10756 10753 10750 10750 10748 10744 10740 10735 10729 10724 10722 10721 10724 10727 10731 10731 10736 10741 10744 10745 10744 10746 10750 10753 10756 10758
10753 10756 10758 10758 10757 10758 10759 10758 10757 10758 10759 10759 10759 10758 10755 10754 10751 10750 10747 10745 10744 10743 10738 10735 10730 10724 10718 10715 10715 10716 10716 10722 10724 10728 10732 10737 10736 10736 10741 10745 10747 10748 10751
10743 10745 10748 10749 10751 10751 10750 10748 10749 10750 10751 10752 10752 10751 10749 10747 10744 10743 10741 10739 10736 10736 10732 10729 10725 10719 10713 10708 10708 10709 10708 10712 10716 10720 10725 10729 10729 10732 10734 10738 10741 10742 10744
10735 10736 10738 10740 10742 10744 10745 10740 10739 10741 10741 10742 10743 10742 10741 10739 10737 10736 10734 10732 10730 10729 10727 10722 10718 10712 10707 10704 10701 10701 10701 10705 10708 10712 10716 10720 10723 10725 10729 10733 10735 10737 10739
10730 10727 10729 10731 10733 10734 10736 10736 10734 10734 10732 10732 10732 10733 10732 10730 10729 10728 10727 10726 10724 10722 10721 10716 10712 10705 10699 10696 10694 10693 10693 10695 10700 10704 10708 10712 10715 10716 10721 10726 10729 10730 10730
10723 10721 10720 10722 10721 10723 10724 10725 10725 10726 10726 10724 10724 10723 10723 10721 10721 10721 10719 10718 10717 10715 10714 10711 10707 10700 10693 10689 10686 10686 10684 10688 10692 10697 10699 10704 10708 10708 10712 10718 10721 10723 10724
10713 10713 10713 10712 10714 10713 10713 10713 10714 10715 10715 10716 10716 10715 10714 10714 10713 10713 10711 10711 10710 10708 10705 10705 10701 10695 10688 10684 10680 10678 10678 10680 10682 10686 10690 10696 10697 10700 10702 10708 10711 10715 10716
10702 10700 10704 10703 10702 10702 10703 10702 10701 10702 10704 10706 10706 10706 10705 10705 10707 10704 10703 10704 10703 10702 10698 10697 10696 10690 10683 10678 10674 10672 10672 10673 10675 10678 10684 10687 10691 10693 10695 10699 10703 10705 10706
10688 10689 10691 10692 10692 10689 10688 10688 10689 10690 10691 10694 10697 10697 10696 10696 10698 10696 10695 10695 10696 10696 10692 10689 10688 10684 10678 10673 10671 10668 10667 10670 10671 10673 10677 10680 10684 10686 10688 10690 10694 10695 10697
10679 10678 10679 10678 10678 10678 10674 10672 10674 10677 10679 10681 10684 10687 10686 10686 10687 10686 10687 10687 10687 10688 10686 10683 10680 10678 10672 10668 10666 10664 10664 10666 10667 10668 10671 10673 10677 10680 10682 10683 10684 10686 10687
10665 10665 10665 10664 10664 10662 10662 10656 10656 10661 10665 10667 10670 10674 10675 10678 10678 10677 10677 10678 10678 10680 10680 10676 10673 10671 10667 10663 10661 10662 10662 10662 10661 10662 10665 10667 10670 10673 10675 10676 10678 10679 10680
10641 10645 10648 10648 10648 10645 10644 10645 10640 10642 10650 10653 10658 10659 10664 10667 10668 10668 10668 10668 10671 10672 10672 10670 10666 10665 10662 10659 10657 10658 10659 10658 10657 10658 10660 10662 10665 10667 10669 10670 10671 10672 10673
10617 10620 10625 10626 10626 10623 10623 10628 10626 10625 10630 10636 10643 10647 10652 10654 10656 10657 10658 10660 10663 10663 10664 10664 10660 10658 10653 10654 10654 10652 10654 10654 10653 10654 10655 10658 10660 10662 10664 10665 10665 10666 10667
10591 10593 10596 10599 10600 10599 10602 10606 10609 10611 10612 10619 10627 10632 10638 10641 10642 10645 10649 10652 10654 10654 10656 10656 10655 10653 10648 10649 10649 10647 10646 10648 10648 10649 10652 10653 10655 10657 10658 10660 10662 10662 10663
10559 10564 10571 10574 10574 10580 10580 10584 10590 10592 10600 10608 10608 10615 10620 10625 10628 10633 10637 10640 10644 10645 10648 10648 10648 10646 10644 10644 10643 10641 10638 10639 10641 10643 10645 10648 10650 10652 10654 10656 10657 10658 10659
10539 10537 10537 10546 10549 10551 10558 10561 10571 10575 10583 10591 10595 10598 10605 10612 10617 10621 10624 10627 10632 10635 10639 10640 10641 10641 10638 10637 10637 10635 10632 10631 10634 10636 10639 10641 10644 10646 10650 10651 10651 10652 10654
10515 10516 10513 10516 10523 10525 10530 10539 10552 10557 10562 10570 10576 10580 10594 10600 10602 10608 10613 10616 10619 10623 10627 10631 10633 10633 10631 10630 10629 10629 10625 10624 10627 10630 10632 10634 10637 10641 10643 10645 10645 10646 10648
10492 10486 10489 10493 10496 10498 10507 10517 10530 10538 10536 10545 10554 10563 10574 10580 10585 10592 10600 10602 10607 10610 10615 10620 10622 10624 10623 10621 10621 10620 10619 10615 10617 10622 10625 10628 10631 10634 10636 10639 10639 10640 10643
10466 10463 10466 10469 10469 10474 10484 10497 10505 10512 10516 10524 10533 10545 10553 10560 10570 10576 10585 10588 10592 10598 10601 10605 10609 10612 10614 10613 10611 10611 10611 10608 10608 10613 10617 10621 10622 10626 10630 10632 10633 10635 10638